ゲーレルス第2彗星

78P/Gehrels 2 (2019)

English version
Home page
Updated on June 15, 2021

---------------------------------------------------------------------

・ プロフィール

・ 写真集

・ 軌道要素

Epoch 2020 Dec. 17.0 TT = JDT 2459200.5                                         
T 2019 Apr. 2.75522 TT                                  Rudenko                 
q   2.0122820            (2000.0)            P               Q                  
n   0.13629575     Peri.  192.65254     +0.72987581     -0.68133965             
a   3.7395083      Node   210.52687     +0.63627544     +0.70670962             
e   0.4618859      Incl.    6.24970     +0.24986971     +0.19062475             
P   7.23                                                                        
From 7983 observations 1973 Nov. 3-2021 Mar. 23, mean residual 1".0.            

・ 星図

・ 光度変化

        m1 =  1.0 + 5 logΔ + 30.0 log r  [   ,  0]  (              〜2019年 4月 2日)
        m1 =  4.0 + 5 logΔ + 20.0 log r  [  0,190]  (2019年 4月 2日〜2019年10月 9日)
        m1 =  0.0 + 5 logΔ + 30.0 log r  [190,375]  (2019年10月 9日〜2020年 4月11日)
        m1 = 10.5 + 5 logΔ + 10.0 log r  [375,   ]  (2020年 4月11日〜               )

---------------------------------------------------------------------

軌道要素はM.P.E.C. 2021-F115に掲載されたものです。
星図はステラナビゲータ Ver.8 (アストロアーツ) で作成したものです。
光度グラフはComet for Windowsで作成したものです。

---------------------------------------------------------------------

Copyright(C) Seiichi Yoshida (comet@aerith.net). All rights reserved.